Location: Eimen
(51.8766°N, 9.7806°E)
Time: 11:00:29
(UTC+00:00)

CZ-6A DEB - Visible Passes

Search period start: 06 October 2024 00:00
Search period end: 16 October 2024 00:00
Orbit: 682 x 855 km, 98.6° (Epoch: 05 October)

Date Brightness Start Highest point End Pass type
(mag) Time Alt. Az. Time Alt. Az. Time Alt. Az.
06 Oct ? 17:32:07 10° S 17:36:41 58° WSW 17:41:20 10° NNW visible
07 Oct ? 18:37:27 10° SW 18:40:30 17° W 18:43:35 10° NW visible
08 Oct ? 05:00:40 10° NE 05:03:43 16° E 05:06:49 10° SE visible
08 Oct ? 18:00:08 10° SSW 18:04:21 34° W 18:08:37 10° NNW visible
09 Oct ? 17:23:45 10° S 17:28:22 69° WSW 17:33:06 10° NNW visible
10 Oct ? 18:28:39 10° SW 18:32:05 20° W 18:35:35 10° NW visible
11 Oct ? 04:52:45 10° NE 04:55:21 14° E 04:57:58 10° ESE visible
11 Oct ? 17:51:36 10° SSW 17:55:57 40° W 18:00:26 10° NNW visible
12 Oct ? 17:15:21 10° SSE 17:20:00 81° WSW 17:24:48 10° NNW visible
12 Oct ? 18:58:11 10° WSW 18:59:56 12° W 19:01:42 10° WNW visible
13 Oct ? 18:19:52 10° SSW 18:23:38 24° W 18:27:29 10° NW visible
14 Oct ? 04:44:58 10° ENE 04:46:54 12° E 04:48:51 10° ESE visible
14 Oct ? 17:43:02 10° S 17:47:31 47° W 17:52:10 10° NNW visible
15 Oct ? 17:06:56 10° SSE 17:11:37 86° ENE 17:16:28 10° NNW visible
15 Oct ? 18:48:52 10° WSW 18:51:25 14° W 18:54:00 10° NW visible
